N124TL KPNE-KILG

Flight info

Callsign N124TL
Flight time 0h 24m
Altitude 1500
Route VFR SOUTH WEST
Aircraft BE58/L-VGD/C

Departure

Time 2026-04-23 02:22
Airport Northeast Philadelphia Airport (KPNE)

Arrival

Time 2026-04-23 02:46
Airport Wilmington Airport (KILG)
Time Latitude Longitude Altitude Speed Heading
2026-04-23 02:15 40.07677 -75.01037 100 ft 0 kts 321°
2026-04-23 02:19 40.07682 -75.01041 100 ft 7 kts 331°
2026-04-23 02:20 40.07768 -75.01022 101 ft 15 kts 345°
2026-04-23 02:20 40.07847 -75.01135 102 ft 21 kts 276°
2026-04-23 02:20 40.07856 -75.01356 103 ft 23 kts 274°
2026-04-23 02:20 40.07864 -75.01572 105 ft 24 kts 272°
2026-04-23 02:21 40.07900 -75.01721 105 ft 12 kts 320°
2026-04-23 02:21 40.07975 -75.01697 106 ft 25 kts 50°
2026-04-23 02:21 40.08308 -75.01207 183 ft 100 kts 51°
2026-04-23 02:21 40.08859 -75.00411 432 ft 131 kts 49°
2026-04-23 02:22 40.09654 -74.99882 883 ft 139 kts 351°
2026-04-23 02:22 40.10533 -75.00590 892 ft 156 kts 323°
2026-04-23 02:22 40.10848 -75.01799 1085 ft 155 kts 251°
2026-04-23 02:22 40.10164 -75.03027 874 ft 171 kts 229°
2026-04-23 02:23 40.09375 -75.04145 955 ft 161 kts 226°
2026-04-23 02:23 40.08598 -75.05184 936 ft 161 kts 223°
2026-04-23 02:23 40.07628 -75.05534 1089 ft 149 kts 160°
2026-04-23 02:23 40.06744 -75.04755 982 ft 158 kts 142°
2026-04-23 02:24 40.05882 -75.03876 1095 ft 155 kts 142°
2026-04-23 02:24 40.05028 -75.02988 1190 ft 162 kts 142°
2026-04-23 02:24 40.04139 -75.02088 1168 ft 160 kts 150°
2026-04-23 02:24 40.03056 -75.01914 1171 ft 158 kts 195°
2026-04-23 02:25 40.02157 -75.02692 1174 ft 157 kts 228°
2026-04-23 02:25 40.01502 -75.03838 1169 ft 158 kts 234°
2026-04-23 02:25 40.00871 -75.05012 1165 ft 158 kts 235°
2026-04-23 02:25 40.00262 -75.06202 1161 ft 158 kts 239°
2026-04-23 02:26 39.99698 -75.07455 1161 ft 159 kts 240°
2026-04-23 02:26 39.99147 -75.08696 1159 ft 159 kts 240°
2026-04-23 02:26 39.98584 -75.09955 1160 ft 159 kts 240°
2026-04-23 02:26 39.98029 -75.11194 1158 ft 159 kts 240°
2026-04-23 02:27 39.97442 -75.12417 1156 ft 159 kts 231°
2026-04-23 02:27 39.96718 -75.13516 1156 ft 158 kts 225°
2026-04-23 02:27 39.95810 -75.14285 1159 ft 157 kts 208°
2026-04-23 02:27 39.94838 -75.14960 1158 ft 157 kts 207°
2026-04-23 02:28 39.93778 -75.15120 1154 ft 156 kts 164°
2026-04-23 02:28 39.92946 -75.14262 1156 ft 157 kts 120°
2026-04-23 02:28 39.92818 -75.12883 1156 ft 158 kts 75°
2026-04-23 02:28 39.93373 -75.11640 1159 ft 158 kts 53°
2026-04-23 02:29 39.94062 -75.10523 1159 ft 158 kts 52°
2026-04-23 02:29 39.94569 -75.09277 1162 ft 157 kts 76°
2026-04-23 02:29 39.94809 -75.07883 1161 ft 157 kts 78°
2026-04-23 02:29 39.95015 -75.06472 1157 ft 157 kts 84°
2026-04-23 02:30 39.94711 -75.05138 1158 ft 157 kts 129°
2026-04-23 02:30 39.93771 -75.04452 1165 ft 157 kts 168°
2026-04-23 02:30 39.92692 -75.04231 1161 ft 158 kts 173°
2026-04-23 02:30 39.91589 -75.04037 1160 ft 158 kts 173°
2026-04-23 02:31 39.90497 -75.03840 1159 ft 158 kts 173°
2026-04-23 02:31 39.89410 -75.03646 1159 ft 158 kts 173°
2026-04-23 02:31 39.88337 -75.03480 1158 ft 157 kts 179°
2026-04-23 02:31 39.87236 -75.03531 1158 ft 157 kts 184°
2026-04-23 02:32 39.86134 -75.03612 1159 ft 156 kts 184°
2026-04-23 02:32 39.85049 -75.03719 1156 ft 156 kts 191°
2026-04-23 02:32 39.84019 -75.04154 1159 ft 157 kts 200°
2026-04-23 02:32 39.82991 -75.04659 1159 ft 157 kts 201°
2026-04-23 02:33 39.81963 -75.05151 1158 ft 158 kts 198°
2026-04-23 02:33 39.80889 -75.05553 1158 ft 158 kts 196°
2026-04-23 02:33 39.79837 -75.05931 1158 ft 158 kts 195°
2026-04-23 02:33 39.78760 -75.06317 1157 ft 159 kts 196°
2026-04-23 02:34 39.77733 -75.06872 1156 ft 158 kts 205°
2026-04-23 02:34 39.76737 -75.07477 1155 ft 158 kts 206°
2026-04-23 02:34 39.76237 -75.07783 1151 ft 158 kts 206°
2026-04-23 02:34 39.75294 -75.08496 1148 ft 156 kts 227°
2026-04-23 02:35 39.74714 -75.09689 1155 ft 156 kts 242°
2026-04-23 02:35 39.74219 -75.10939 1162 ft 155 kts 243°
2026-04-23 02:35 39.73725 -75.12197 1163 ft 156 kts 243°
2026-04-23 02:35 39.73231 -75.13465 1163 ft 156 kts 243°
2026-04-23 02:36 39.72741 -75.14724 1163 ft 156 kts 243°
2026-04-23 02:36 39.72249 -75.15984 1160 ft 156 kts 243°
2026-04-23 02:36 39.71754 -75.17248 1158 ft 156 kts 247°
2026-04-23 02:36 39.71550 -75.18616 1162 ft 155 kts 264°
2026-04-23 02:37 39.71437 -75.20000 1162 ft 155 kts 264°
2026-04-23 02:37 39.71321 -75.21397 1162 ft 155 kts 264°
2026-04-23 02:37 39.71203 -75.22788 1162 ft 155 kts 264°
2026-04-23 02:37 39.71084 -75.24178 1161 ft 154 kts 264°
2026-04-23 02:38 39.70964 -75.25566 1161 ft 154 kts 264°
2026-04-23 02:38 39.70844 -75.26958 1161 ft 154 kts 263°
2026-04-23 02:38 39.70723 -75.28351 1162 ft 154 kts 263°
2026-04-23 02:38 39.70604 -75.29717 1163 ft 154 kts 263°
2026-04-23 02:39 39.70483 -75.31100 1164 ft 154 kts 263°
2026-04-23 02:39 39.70361 -75.32502 1164 ft 154 kts 263°
2026-04-23 02:39 39.70241 -75.33881 1163 ft 154 kts 263°
2026-04-23 02:39 39.70119 -75.35274 1161 ft 154 kts 263°
2026-04-23 02:40 39.69998 -75.36657 1161 ft 154 kts 263°
2026-04-23 02:40 39.69878 -75.38030 1162 ft 154 kts 263°
2026-04-23 02:40 39.69755 -75.39423 1161 ft 154 kts 263°
2026-04-23 02:40 39.69634 -75.40805 1164 ft 154 kts 263°
2026-04-23 02:41 39.69512 -75.42188 1162 ft 153 kts 263°
2026-04-23 02:41 39.69392 -75.43556 1163 ft 153 kts 263°
2026-04-23 02:41 39.69270 -75.44947 1160 ft 153 kts 263°
2026-04-23 02:41 39.69149 -75.46313 1161 ft 153 kts 263°
2026-04-23 02:42 39.69028 -75.47677 1161 ft 152 kts 263°
2026-04-23 02:42 39.68906 -75.49060 1163 ft 152 kts 263°
2026-04-23 02:42 39.68785 -75.50421 1165 ft 153 kts 263°
2026-04-23 02:42 39.68663 -75.51784 1164 ft 153 kts 262°
2026-04-23 02:43 39.68527 -75.53167 1150 ft 153 kts 260°
2026-04-23 02:43 39.68383 -75.54501 1143 ft 143 kts 277°
2026-04-23 02:43 39.68904 -75.55513 1146 ft 138 kts 327°
2026-04-23 02:43 39.69776 -75.56026 1102 ft 136 kts 342°
2026-04-23 02:44 39.70711 -75.56316 986 ft 140 kts 344°
2026-04-23 02:44 39.71306 -75.57117 1117 ft 129 kts 278°
2026-04-23 02:44 39.71374 -75.58340 1036 ft 139 kts 271°
2026-04-23 02:44 39.71154 -75.59488 956 ft 138 kts 225°
2026-04-23 02:45 39.70262 -75.60079 572 ft 139 kts 189°
2026-04-23 02:45 39.69387 -75.60116 257 ft 109 kts 181°
2026-04-23 02:45 39.68708 -75.60176 130 ft 97 kts 185°
2026-04-23 02:45 39.68074 -75.60252 75 ft 84 kts 184°
2026-04-23 02:46 39.67605 -75.60306 74 ft 53 kts 184°
2026-04-23 02:46 39.67330 -75.60331 74 ft 22 kts 183°
2026-04-23 02:46 39.67146 -75.60349 74 ft 33 kts 184°
2026-04-23 02:46 39.66962 -75.60362 74 ft 15 kts 163°
2026-04-23 02:47 39.66957 -75.60242 74 ft 14 kts 20°
2026-04-23 02:47 39.67086 -75.60223 74 ft 26 kts
2026-04-23 02:47 39.67265 -75.60204 74 ft 22 kts
2026-04-23 02:47 39.67269 -75.60084 75 ft 18 kts 89°
2026-04-23 02:48 39.67337 -75.60001 74 ft 11 kts 53°
2026-04-23 02:48 39.67358 -75.59995 75 ft 0 kts 289°